| time (UTC) | temp F | wind direction | speed knots | gust knots | rain 1hr in | rain 24hr in | rain mn in | humidity % | barometer mb |
| 20260831214552 | 72 | 131 | 1.7 | 3.5 | 0.04 | 0.23 | 0.13 | 92 | 1016.2 |
| 20260831213050 | 73 | 122 | 0.9 | 0.9 | 0.09 | 0.22 | 0.12 | 90 | 1016.2 |
| 20260831211545 | 73 | 0 | 0.0 | 2.6 | 0.10 | 0.20 | 0.10 | 89 | 1016.4 |
| 20260831210041 | 74 | 140 | 0.9 | 3.5 | 0.09 | 0.19 | 0.09 | 87 | 1016.1 |
| 20260831204547 | 76 | 272 | 2.6 | 7.0 | 0.09 | 0.19 | 0.09 | 84 | 1016.4 |
| 20260831203046 | 80 | 0 | 0.0 | 3.5 | 0.03 | 0.13 | 0.03 | 79 | 1017.1 |
| 20260831201541 | 82 | 250 | 0.9 | 2.6 | 0.00 | 0.10 | 0.00 | 73 | 1016.9 |
| 20260831200040 | 83 | 170 | 0.9 | 3.5 | 0.00 | 0.10 | 0.00 | 70 | 1016.3 |
| 20260831194616 | 84 | 138 | 0.9 | 5.2 | 0.00 | 0.10 | 0.00 | 70 | 1016.4 |
| 20260831193044 | 85 | 125 | 1.7 | 5.2 | 0.00 | 0.10 | 0.00 | 67 | 1016.3 |
| 20260831191542 | 85 | 136 | 2.6 | 9.6 | 0.00 | 0.10 | 0.00 | 66 | 1016.3 |
| 20260831190054 | 85 | 98 | 4.3 | 8.7 | 0.00 | 0.10 | 0.00 | 65 | 1016.2 |
| 20260831184547 | 84 | 104 | 2.6 | 6.1 | 0.00 | 0.10 | 0.00 | 71 | 1016.3 |
| 20260831183046 | 84 | 160 | 1.7 | 7.0 | 0.00 | 0.10 | 0.00 | 68 | 1016.6 |
| 20260831181547 | 84 | 141 | 2.6 | 7.0 | 0.00 | 0.10 | 0.00 | 69 | 1016.6 |
| 20260831180049 | 82 | 158 | 0.9 | 4.3 | 0.00 | 0.10 | 0.00 | 73 | 1016.9 |
| 20260831174541 | 80 | 108 | 2.6 | 4.3 | 0.00 | 0.10 | 0.00 | 76 | 1016.9 |
| 20260831173040 | 79 | 149 | 1.7 | 3.5 | 0.00 | 0.10 | 0.00 | 78 | 1017.2 |
| 20260831171546 | 77 | 160 | 0.0 | 1.7 | 0.00 | 0.10 | 0.00 | 83 | 1017.3 |
| 20260831170040 | 75 | 0 | 0.0 | 1.7 | 0.00 | 0.10 | 0.00 | 88 | 1017.5 |
| 20260831164555 | 75 | 116 | 1.7 | 2.6 | 0.00 | 0.10 | 0.00 | 89 | 1017.0 |
| 20260831163040 | 75 | 0 | 0.0 | 0.0 | 0.00 | 0.10 | 0.00 | 87 | 1018.2 |
| 20260831161547 | 74 | 0 | 0.0 | 0.0 | 0.00 | 0.10 | 0.00 | 90 | 1018.4 |
| 20260831160043 | 74 | 0 | 0.0 | 0.9 | 0.00 | 0.10 | 0.00 | 87 | 1018.5 |
| 20260831154649 | 75 | 0 | 0.0 | 1.7 | 0.00 | 0.11 | 0.00 | 83 | 1018.4 |
| 20260831153049 | 76 | 246 | 0.9 | 4.3 | 0.00 | 0.11 | 0.00 | 80 | 1018.1 |
| 20260831151540 | 76 | 262 | 1.7 | 5.2 | 0.00 | 0.11 | 0.00 | 80 | 1018.0 |
| 20260831150042 | 75 | 308 | 0.9 | 5.2 | 0.00 | 0.11 | 0.00 | 82 | 1017.9 |
| 20260831144548 | 75 | 250 | 0.9 | 4.3 | 0.00 | 0.17 | 0.00 | 82 | 1017.8 |
| 20260831143105 | 76 | 258 | 1.7 | 7.0 | 0.00 | 0.17 | 0.00 | 82 | 1017.5 |
| 20260831141553 | 74 | 235 | 1.7 | 5.2 | 0.00 | 0.17 | 0.00 | 85 | 1017.4 |
| 20260831140052 | 74 | 280 | 0.9 | 4.3 | 0.00 | 0.17 | 0.00 | 85 | 1017.6 |
| 20260831134542 | 73 | 263 | 0.9 | 3.5 | 0.00 | 0.31 | 0.00 | 86 | 1017.5 |
| 20260831133047 | 73 | 268 | 1.7 | 4.3 | 0.00 | 0.31 | 0.00 | 85 | 1017.3 |
| 20260831131539 | 73 | 214 | 0.0 | 4.3 | 0.00 | 0.31 | 0.00 | 87 | 1017.1 |
| 20260831130043 | 72 | 180 | 0.0 | 3.5 | 0.00 | 0.31 | 0.00 | 88 | 1017.3 |
| 20260831124539 | 72 | 217 | 0.9 | 3.5 | 0.00 | 0.40 | 0.00 | 88 | 1017.0 |
| 20260831123041 | 71 | 0 | 0.9 | 2.6 | 0.00 | 0.40 | 0.00 | 90 | 1017.1 |
| 20260831121542 | 70 | 0 | 0.0 | 0.9 | 0.00 | 0.40 | 0.00 | 91 | 1017.1 |
| 20260831120044 | 69 | 0 | 0.0 | 0.0 | 0.00 | 0.40 | 0.00 | 92 | 1016.8 |
| 20260831114542 | 69 | 0 | 0.0 | 0.0 | 0.00 | 0.40 | 0.00 | 92 | 1016.9 |
| 20260831113048 | 69 | 0 | 0.0 | 0.9 | 0.00 | 0.40 | 0.00 | 92 | 1016.9 |
| 20260831111541 | 69 | 0 | 0.0 | 0.9 | 0.00 | 0.40 | 0.00 | 92 | 1016.8 |
| 20260831110042 | 69 | 0 | 0.0 | 0.0 | 0.00 | 0.40 | 0.00 | 91 | 1016.9 |
| 20260831104537 | 69 | 0 | 0.0 | 0.0 | 0.00 | 0.40 | 0.00 | 91 | 1017.0 |
| 20260831103048 | 69 | 0 | 0.0 | 0.9 | 0.00 | 0.40 | 0.00 | 91 | 1016.9 |
| 20260831101551 | 69 | 0 | 0.0 | 0.9 | 0.00 | 0.40 | 0.00 | 90 | 1016.8 |
| 20260831100056 | 69 | 0 | 0.0 | 1.7 | 0.00 | 0.40 | 0.00 | 90 | 1016.8 |
| 20260831094542 | 70 | 0 | 0.0 | 1.7 | 0.00 | 0.40 | 0.00 | 89 | 1016.7 |
| 20260831093049 | 70 | 165 | 0.0 | 0.9 | 0.00 | 0.40 | 0.00 | 89 | 1016.8 |
| 20260831091541 | 70 | 0 | 0.0 | 0.9 | 0.00 | 0.40 | 0.00 | 89 | 1016.5 |
| 20260831090101 | 70 | 0 | 0.0 | 2.6 | 0.00 | 0.40 | 0.00 | 88 | 1016.7 |
| 20260831084541 | 70 | 0 | 0.0 | 2.6 | 0.00 | 0.44 | 0.00 | 89 | 1016.5 |
| 20260831083041 | 70 | 0 | 0.0 | 4.3 | 0.00 | 0.44 | 0.00 | 89 | 1016.5 |
| 20260831081542 | 70 | 0 | 0.0 | 2.6 | 0.00 | 0.44 | 0.00 | 89 | 1016.4 |
| 20260831080044 | 69 | 250 | 0.0 | 3.5 | 0.00 | 0.44 | 0.00 | 89 | 1016.3 |
| 20260831074541 | 69 | 246 | 0.0 | 1.7 | 0.00 | 0.44 | 0.00 | 90 | 1016.4 |
| 20260831073042 | 69 | 246 | 0.9 | 4.3 | 0.00 | 0.44 | 0.00 | 91 | 1016.5 |
| 20260831071541 | 68 | 255 | 0.0 | 0.9 | 0.00 | 0.44 | 0.00 | 91 | 1016.9 |
| 20260831070042 | 69 | 259 | 0.0 | 0.9 | 0.00 | 0.44 | 0.00 | 91 | 1017.1 |
| 20260831064547 | 69 | 0 | 0.0 | 0.9 | 0.00 | 0.44 | 0.00 | 92 | 1017.3 |
| 20260831063040 | 69 | 0 | 0.0 | 1.7 | 0.00 | 0.44 | 0.00 | 92 | 1017.3 |
| 20260831061553 | 68 | 0 | 0.0 | 1.7 | 0.00 | 0.44 | 0.00 | 93 | 1017.4 |
| 20260831060042 | 68 | 0 | 0.0 | 0.0 | 0.00 | 0.44 | 0.00 | 93 | 1017.5 |
| 20260831054545 | 68 | 0 | 0.0 | 0.0 | 0.00 | 0.44 | 0.00 | 93 | 1017.4 |
| 20260831053042 | 68 | 0 | 0.0 | 0.0 | 0.00 | 0.44 | 0.00 | 92 | 1017.6 |
| 20260831051549 | 68 | 0 | 0.0 | 0.9 | 0.00 | 0.44 | 0.00 | 93 | 1017.5 |
| 20260831050044 | 68 | 0 | 0.0 | 1.7 | 0.00 | 0.44 | 0.00 | 93 | 1017.4 |
| 20260831044542 | 68 | 165 | 0.0 | 2.6 | 0.00 | 0.45 | 0.00 | 93 | 1017.6 |
| 20260831043041 | 69 | 136 | 0.0 | 0.9 | 0.00 | 0.45 | 0.00 | 92 | 1017.7 |
| 20260831041542 | 69 | 0 | 0.0 | 0.0 | 0.00 | 0.45 | 0.00 | 91 | 1017.8 |
| 20260831040041 | 69 | 160 | 0.0 | 1.7 | 0.00 | 0.45 | 0.00 | 91 | 1017.9 |
| 20260831034544 | 69 | 135 | 0.0 | 1.7 | 0.00 | 0.45 | 0.45 | 91 | 1017.9 |
| 20260831033042 | 69 | 212 | 0.0 | 2.6 | 0.00 | 0.45 | 0.45 | 91 | 1017.9 |
| 20260831031545 | 69 | 204 | 0.0 | 2.6 | 0.00 | 0.45 | 0.45 | 91 | 1018.0 |
| 20260831030047 | 69 | 0 | 0.0 | 0.9 | 0.00 | 0.45 | 0.45 | 91 | 1017.7 |
| 20260831024607 | 69 | 103 | 0.0 | 1.7 | 0.00 | 0.45 | 0.45 | 91 | 1017.6 |
| 20260831023045 | 69 | 114 | 0.0 | 1.7 | 0.00 | 0.45 | 0.45 | 90 | 1017.5 |
| 20260831021540 | 70 | 114 | 0.0 | 2.6 | 0.00 | 0.45 | 0.45 | 90 | 1017.5 |
| 20260831020041 | 70 | 162 | 0.0 | 5.2 | 0.00 | 0.45 | 0.45 | 89 | 1017.3 |
| 20260831014541 | 70 | 155 | 0.9 | 3.5 | 0.00 | 0.45 | 0.45 | 89 | 1017.2 |
| 20260831013054 | 70 | 82 | 0.9 | 3.5 | 0.00 | 0.45 | 0.45 | 89 | 1017.1 |
| 20260831011542 | 70 | 115 | 1.7 | 3.5 | 0.00 | 0.45 | 0.45 | 89 | 1017.1 |
| 20260831010049 | 70 | 158 | 0.9 | 3.5 | 0.00 | 0.45 | 0.45 | 88 | 1017.1 |
| 20260831004547 | 70 | 87 | 2.6 | 5.2 | 0.00 | 0.45 | 0.45 | 88 | 1016.5 |
| 20260831003044 | 70 | 117 | 0.9 | 7.0 | 0.00 | 0.45 | 0.45 | 88 | 1016.6 |
| 20260831001541 | 70 | 104 | 1.7 | 6.1 | 0.00 | 0.45 | 0.45 | 87 | 1016.3 |
| 20260831000048 | 70 | 106 | 2.6 | 7.8 | 0.00 | 0.45 | 0.45 | 87 | 1016.5 |
| 20260830234547 | 70 | 113 | 2.6 | 7.0 | 0.00 | 0.45 | 0.45 | 87 | 1016.6 |
| 20260830233051 | 70 | 75 | 1.7 | 5.2 | 0.00 | 0.45 | 0.45 | 87 | 1017.0 |
| 20260830231540 | 70 | 65 | 1.7 | 6.1 | 0.00 | 0.45 | 0.45 | 87 | 1016.8 |
| 20260830230049 | 70 | 115 | 1.7 | 4.3 | 0.00 | 0.45 | 0.45 | 87 | 1017.1 |
| 20260830224543 | 70 | 138 | 1.7 | 4.3 | 0.00 | 0.45 | 0.45 | 88 | 1017.1 |
| 20260830223040 | 70 | 97 | 0.9 | 3.5 | 0.04 | 0.45 | 0.45 | 89 | 1017.3 |
| 20260830221545 | 70 | 103 | 0.9 | 2.6 | 0.10 | 0.45 | 0.45 | 90 | 1017.3 |
| 20260830220048 | 70 | 143 | 0.0 | 1.7 | 0.10 | 0.45 | 0.45 | 90 | 1017.5 |